KD8BMB Weather Reports


Display with metric or nautical units.
time (UTC)temp
F
wind
direction
speed
MPH
gust
MPH
rain 1hr
in
rain 24hr
in
rain mn
in
humidity
%
barometer
mb
20260503201444 62 244 3.0 6.0 0.00 0.00 0.00 47 1008.0
20260503200942 62 238 8.0 9.0 0.00 0.00 0.00 45 1008.1
20260503200438 61 231 10.0 15.0 0.00 0.00 0.00 47 1008.0
20260503195935 62 192 2.0 2.0 0.00 0.00 0.00 48 1008.4
20260503195432 62 208 4.0 7.0 0.00 0.00 0.00 46 1008.0
20260503194928 62 185 4.0 5.0 0.00 0.00 0.00 48 1008.5
20260503194425 62 217 6.0 11.0 0.00 0.00 0.00 47 1008.5
20260503193921 61 248 9.0 11.0 0.00 0.00 0.00 46 1008.4
20260503193416 61 252 6.0 9.0 0.00 0.00 0.00 47 1008.6
20260503192912 61 268 11.0 14.0 0.00 0.00 0.00 47 1008.5
20260503192409 62 198 5.0 7.0 0.00 0.00 0.00 47 1008.7
20260503191904 64 276 8.0 10.0 0.00 0.00 0.00 46 1008.8
20260503191403 63 222 6.0 8.0 0.00 0.00 0.00 47 1008.8
20260503190858 62 208 5.0 7.0 0.00 0.00 0.00 48 1008.6
20260503190356 62 243 10.0 15.0 0.00 0.00 0.00 49 1009.0
20260503185852 61 241 11.0 13.0 0.00 0.00 0.00 50 1009.0
20260503185349 61 172 6.0 9.0 0.00 0.00 0.00 50 1009.1
20260503184848 60 322 5.0 9.0 0.00 0.00 0.00 51 1009.1
20260503184345 61 164 9.0 10.0 0.00 0.00 0.00 50 1009.2
20260503183840 61 242 5.0 8.0 0.00 0.00 0.00 50 1009.3
20260503183338 62 277 8.0 11.0 0.00 0.00 0.00 49 1009.1
20260503182835 63 228 5.0 6.0 0.00 0.00 0.00 47 1009.4
20260503182334 62 233 6.0 9.0 0.00 0.00 0.00 47 1009.3
20260503181831 62 258 15.0 23.0 0.00 0.00 0.00 48 1009.4
20260503181328 62 263 13.0 18.0 0.00 0.00 0.00 47 1009.5
20260503180825 62 276 5.0 6.0 0.00 0.00 0.00 46 1009.6
20260503180323 62 244 9.0 11.0 0.00 0.00 0.00 45 1009.7
20260503175819 62 189 5.0 9.0 0.00 0.00 0.00 46 1009.6
20260503175317 61 284 6.0 8.0 0.00 0.00 0.00 46 1010.0
20260503174812 60 233 2.0 2.0 0.00 0.00 0.00 49 1010.0
20260503174311 60 282 5.0 7.0 0.00 0.00 0.00 48 1009.8
20260503173806 60 232 7.0 9.0 0.00 0.00 0.00 48 1010.0
20260503173302 60 224 7.0 8.0 0.00 0.00 0.00 47 1010.1
20260503172759 60 245 10.0 11.0 0.00 0.00 0.00 47 1010.1
20260503172256 60 258 6.0 9.0 0.00 0.00 0.00 48 1010.2
20260503171752 59 285 3.0 3.0 0.00 0.00 0.00 47 1010.3
20260503171249 59 205 1.0 3.0 0.00 0.00 0.00 48 1010.5
20260503170747 60 247 5.0 7.0 0.00 0.00 0.00 48 1010.8
20260503170243 59 272 5.0 8.0 0.00 0.00 0.00 48 1010.7
20260503160205 57 243 4.0 6.0 0.00 0.00 0.00 51 1011.4
20260503150636 53 233 3.0 3.0 0.00 0.00 0.00 53 1011.9
20260503150131 53 268 4.0 7.0 0.00 0.00 0.00 52 1011.8
20260503131025 50 271 4.0 6.0 0.00 0.00 0.00 57 1012.2
20260503130522 50 275 4.0 5.0 0.00 0.00 0.00 58 1012.5
20260503110413 39 264 2.0 2.0 0.00 0.00 0.00 67 1012.5
20260503090258 35 246 0.0 0.0 0.00 0.00 0.00 76 1013.7
20260503081226 33 316 0.0 0.0 0.00 0.00 0.00 80 1014.0
20260503080721 33 310 0.0 0.0 0.00 0.00 0.00 80 1014.0
20260503080219 33 310 0.0 0.0 0.00 0.00 0.00 79 1014.0
20260503072655 35 310 0.0 0.0 0.00 0.00 0.00 75 1014.1
20260503072152 35 282 0.0 0.0 0.00 0.00 0.00 75 1014.0
20260503071649 35 285 0.0 0.0 0.00 0.00 0.00 75 1014.1
20260503071145 36 294 0.0 0.0 0.00 0.00 0.00 75 1014.2
20260503070642 36 295 0.0 0.0 0.00 0.00 0.00 74 1014.4
20260503070140 36 309 0.0 0.0 0.00 0.00 0.00 73 1014.3
20260503060105 38 285 0.0 0.0 0.00 0.00 0.00 67 1015.0
20260503055056 39 239 1.0 1.0 0.00 0.00 0.00 67 1014.7
20260503054552 39 285 1.0 2.0 0.00 0.00 0.00 66 1014.8
20260503054049 39 282 0.0 0.0 0.00 0.00 0.00 66 1015.0
20260503053547 39 197 1.0 1.0 0.00 0.00 0.00 65 1014.9
20260503053045 39 282 0.0 0.0 0.00 0.00 0.00 66 1014.9
20260503052541 39 236 1.0 2.0 0.00 0.00 0.00 65 1015.0
20260503052037 40 250 3.0 3.0 0.00 0.00 0.00 65 1015.1
20260503051533 40 283 1.0 1.0 0.00 0.00 0.00 65 1014.9
20260503051031 40 257 1.0 2.0 0.00 0.00 0.00 64 1015.0
20260503050526 40 283 1.0 1.0 0.00 0.00 0.00 65 1015.1
20260503050024 40 243 3.0 3.0 0.00 0.00 0.00 65 1014.7
20260503045521 40 274 3.0 3.0 0.00 0.00 0.00 65 1015.1
20260503045018 40 282 1.0 1.0 0.00 0.00 0.00 64 1015.1
20260503044515 40 208 2.0 3.0 0.00 0.00 0.00 64 1015.1
20260503044013 40 230 2.0 2.0 0.00 0.00 0.00 65 1015.2
20260503043509 41 265 2.0 2.0 0.00 0.00 0.00 64 1015.1
20260503043005 41 209 1.0 1.0 0.00 0.00 0.00 64 1015.1
20260503042502 41 224 1.0 1.0 0.00 0.00 0.00 64 1015.1
20260503041958 41 231 1.0 1.0 0.00 0.00 0.00 64 1015.0
20260503041455 41 260 1.0 1.0 0.00 0.00 0.00 64 1015.0
20260503040953 41 272 3.0 5.0 0.00 0.00 0.00 64 1015.1
20260503040450 41 275 1.0 2.0 0.00 0.00 0.00 64 1015.0
20260503035947 41 212 2.0 2.0 0.00 0.00 0.00 64 1015.1
20260503035444 41 275 1.0 2.0 0.00 0.00 0.00 63 1015.1
20260503034942 41 254 0.0 0.0 0.00 0.00 0.00 63 1015.1
20260503034439 42 239 2.0 2.0 0.00 0.00 0.00 62 1015.0
20260503033936 42 287 2.0 2.0 0.00 0.00 0.00 63 1014.9
20260503033433 42 272 1.0 1.0 0.00 0.00 0.00 62 1015.1
20260503032931 42 251 3.0 3.0 0.00 0.00 0.00 62 1015.0
20260503032430 42 231 1.0 1.0 0.00 0.00 0.00 62 1014.9
20260503031927 42 247 1.0 1.0 0.00 0.00 0.00 62 1015.1
20260503031424 42 285 0.0 0.0 0.00 0.00 0.00 63 1015.0
20260503030921 42 301 3.0 3.0 0.00 0.00 0.00 64 1015.3
20260503030417 42 290 0.0 1.0 0.00 0.00 0.00 63 1014.8
20260503025914 42 253 1.0 1.0 0.00 0.00 0.00 63 1015.2
20260503025411 42 239 0.0 0.0 0.00 0.00 0.00 64 1015.2
20260503024909 42 224 0.0 0.0 0.00 0.00 0.00 63 1015.2
20260503024405 41 287 0.0 1.0 0.00 0.00 0.00 64 1015.2
20260503023902 41 267 0.0 0.0 0.00 0.00 0.00 65 1015.2
20260503023359 41 303 0.0 0.0 0.00 0.00 0.00 65 1015.1
20260503022856 42 294 0.0 0.0 0.00 0.00 0.00 64 1015.4
20260503022350 42 261 0.0 0.0 0.00 0.00 0.00 63 1015.4
20260503021847 42 276 0.0 0.0 0.00 0.00 0.00 63 1015.3
20260503021343 41 271 0.0 0.0 0.00 0.00 0.00 64 1015.3
20260503020840 42 295 0.0 0.0 0.00 0.00 0.00 63 1015.0
20260503020338 42 279 0.0 0.0 0.00 0.00 0.00 63 1015.1
20260503015834 42 287 0.0 0.0 0.00 0.00 0.00 63 1015.0
20260503015332 42 250 0.0 0.0 0.00 0.00 0.00 62 1015.1
20260503014827 42 291 0.0 0.0 0.00 0.00 0.00 62 1015.0
20260503014325 42 279 0.0 0.0 0.00 0.00 0.00 62 1015.2
20260503013822 42 290 0.0 0.0 0.00 0.00 0.00 61 1015.2
20260503013320 42 288 0.0 0.0 0.00 0.00 0.00 62 1015.1
20260503012817 42 304 0.0 0.0 0.00 0.00 0.00 62 1015.0
20260503012314 42 290 0.0 0.0 0.00 0.00 0.00 62 1015.0
20260503011810 42 287 0.0 0.0 0.00 0.00 0.00 61 1015.1
20260503011308 43 286 0.0 0.0 0.00 0.00 0.00 59 1014.9
20260503010804 43 287 0.0 0.0 0.00 0.00 0.00 58 1015.0
20260503010301 43 287 0.0 0.0 0.00 0.00 0.00 57 1014.9
20260503005758 44 287 0.0 0.0 0.00 0.00 0.00 55 1015.0
20260503005256 44 287 0.0 0.0 0.00 0.00 0.00 53 1014.9
20260503004751 45 294 0.0 0.0 0.00 0.00 0.00 53 1014.6
20260503004250 45 270 0.0 0.0 0.00 0.00 0.00 53 1015.0
20260503003746 46 236 2.0 2.0 0.00 0.00 0.00 50 1014.8
20260503003244 46 278 1.0 1.0 0.00 0.00 0.00 50 1014.8
20260503002740 46 272 0.0 0.0 0.00 0.00 0.00 50 1015.2
20260503002237 47 257 0.0 1.0 0.00 0.00 0.00 47 1014.9
20260503001733 47 286 0.0 0.0 0.00 0.00 0.00 47 1015.0
20260503001230 47 301 0.0 0.0 0.00 0.00 0.00 49 1014.9
20260503000728 48 283 0.0 0.0 0.00 0.00 0.00 47 1014.6
20260503000226 48 251 0.0 0.0 0.00 0.00 0.00 45 1014.7
20260502235722 49 269 0.0 0.0 0.00 0.00 0.00 48 1015.0
20260502235220 49 250 0.0 0.0 0.00 0.00 0.00 44 1014.9
20260502234716 49 249 0.0 0.0 0.00 0.00 0.00 45 1015.0
20260502234213 48 256 0.0 0.0 0.00 0.00 0.00 45 1014.9
20260502233709 48 263 0.0 0.0 0.00 0.00 0.00 45 1014.9
20260502233206 48 290 0.0 1.0 0.00 0.00 0.00 44 1015.0
20260502232701 48 246 1.0 1.0 0.00 0.00 0.00 44 1015.1
20260502232159 49 242 2.0 2.0 0.00 0.00 0.00 43 1015.1
20260502231655 49 216 2.0 2.0 0.00 0.00 0.00 43 1015.1
20260502231153 50 231 3.0 5.0 0.00 0.00 0.00 42 1015.0
20260502230652 50 273 1.0 2.0 0.00 0.00 0.00 42 1015.0
20260502230150 50 265 2.0 3.0 0.00 0.00 0.00 41 1015.0
20260502225645 50 271 2.0 3.0 0.00 0.00 0.00 42 1015.4
20260502225143 50 251 4.0 6.0 0.00 0.00 0.00 40 1015.3
20260502224638 50 271 4.0 7.0 0.00 0.00 0.00 40 1015.4
20260502224136 50 262 4.0 5.0 0.00 0.00 0.00 40 1015.2
20260502223633 50 209 4.0 5.0 0.00 0.00 0.00 40 1015.0
20260502223131 51 248 4.0 7.0 0.00 0.00 0.00 41 1015.2
20260502222629 52 96 1.0 2.0 0.00 0.00 0.00 37 1015.3
20260502222125 51 303 0.0 0.0 0.00 0.00 0.00 38 1015.2
20260502221620 49 258 0.0 0.0 0.00 0.00 0.00 42 1015.3
20260502221118 48 331 0.0 0.0 0.00 0.00 0.00 42 1015.4
20260502220615 48 295 3.0 3.0 0.00 0.00 0.00 40 1015.3
20260502220111 49 206 2.0 2.0 0.00 0.00 0.00 40 1015.6
20260502215608 49 331 1.0 1.0 0.00 0.00 0.00 42 1015.3
20260502215105 49 286 4.0 7.0 0.00 0.00 0.00 42 1015.6
20260502214601 49 110 1.0 2.0 0.00 0.00 0.00 39 1015.4
20260502214059 49 268 3.0 3.0 0.00 0.00 0.00 42 1015.4
20260502213556 49 17 0.0 1.0 0.00 0.00 0.00 40 1015.6
20260502213053 49 252 3.0 5.0 0.00 0.00 0.00 40 1015.4
20260502212552 48 246 0.0 0.0 0.00 0.00 0.00 40 1015.5
20260502212050 48 271 0.0 1.0 0.00 0.00 0.00 41 1015.5
20260502211545 49 282 1.0 1.0 0.00 0.00 0.00 40 1015.4
20260502211043 49 227 6.0 9.0 0.00 0.00 0.00 39 1015.6
20260502210539 49 281 5.0 7.0 0.00 0.00 0.00 39 1015.6
20260502210036 49 231 2.0 5.0 0.00 0.00 0.00 39 1015.7
20260502205533 48 296 1.0 2.0 0.00 0.00 0.00 40 1015.8
20260502205030 49 317 3.0 3.0 0.00 0.00 0.00 38 1015.8
20260502204527 49 280 0.0 1.0 0.00 0.00 0.00 40 1015.7
20260502204025 50 282 1.0 1.0 0.00 0.00 0.00 38 1015.7
20260502203521 50 331 5.0 9.0 0.00 0.00 0.00 38 1015.8
20260502203018 50 220 4.0 7.0 0.00 0.00 0.00 38 1015.8
20260502202514 50 36 3.0 3.0 0.00 0.00 0.00 38 1016.0
20260502202013 49 279 0.0 1.0 0.00 0.00 0.00 41 1016.0